Location: Arcones
(41.1182°N, 3.7238°W)
Time: 03:36:26
(UTC+00:00)

IRIDIUM 106 - Pass Details

Date: 17 March 2026
Orbit: 776 x 780 km, 86.4° (Epoch: 17 April)

Event Time Altitude Azimuth Distance (km) Brightness Sun altitude
Exits shadow 22:01:40 22° 325° (NW) 1,642 6.5 -38.8°
Drops below altitude 10° 22:03:57 10° 344° (NNW) 2,339 7.3 -39.1°
Sets 22:06:32 0° 354° (N) 3,271 8.1 -39.5°
